Starlink 1972

operational
NORAD ID: 47627 Int'l Des: 2021-012 Owner: SPXS Country: US Constellation: starlink
LEOCIRCULARSTARLINK_TYPE

About Starlink 1972

Description loading...

Live Position

Loading 3D Globe...

Upcoming Passes

Altitude History

Altitude vs Time

uPlot chart will show altitude changes over time

Two-Line Element Set

1 47627U 21012H 25346.80248796 .00003798 00000-0 27396-3 0 9993
2 47627 53.0553 6.6694 0001356 81.9953 278.1190 15.06369559268193
Epoch: Dec 12, 2025 • Age: 19 hours

Current Status

Altitude 566.3 km
Velocity 7.58 km/s
Sub-Earth Point -52.09°S, 3.36°W
Launch Date Feb 16, 2021
Age 4.8 years
Type internet

Technical Details

Classification Payload
Mass 260.00 kg
Dry Mass 248.00 kg
Total Mass 260.00 kg
Length 0.20 m
Diameter 2.80 m
Span 9.00 m
Shape Box + pan
Manufacturer SPXS
Bus Type Starlink
Phase Status In Orbit
Owner/State SPXS/US

Large Constellations

Loading constellations...